Time,TemperatureF,DewpointF,PressureIn,WindDirection,WindDirectionDegrees,WindSpeedMPH,WindSpeedGustMPH,Humidity,HourlyPrecipIn,Conditions,Clouds,dailyrainin,SoftwareType,DateUTC
2013-07-15 00:01:00,73.0,70.0,30.16,NE,43,0.0,-999.0,91,-99.99,,,-99.99,,2013-07-15 04:01:00,
2013-07-15 00:11:00,73.0,71.0,30.16,NE,43,0.0,-999.0,92,-99.99,,,-99.99,,2013-07-15 04:11:00,
2013-07-15 00:22:00,73.0,71.0,30.16,NE,43,0.0,-999.0,92,-99.99,,,-99.99,,2013-07-15 04:22:00,
2013-07-15 00:32:00,72.0,70.0,30.16,NE,43,0.0,-999.0,92,-99.99,,,-99.99,,2013-07-15 04:32:00,
2013-07-15 00:42:00,72.0,70.0,30.15,NE,43,0.0,-999.0,92,-99.99,,,-99.99,,2013-07-15 04:42:00,
2013-07-15 00:54:00,72.0,70.0,30.15,NE,43,0.0,-999.0,92,-99.99,,,-99.99,,2013-07-15 04:54:00,
2013-07-15 01:02:00,72.0,70.0,30.15,NE,43,0.0,-999.0,92,-99.99,,,-99.99,,2013-07-15 05:02:00,
2013-07-15 01:12:00,72.0,70.0,30.15,NE,43,0.0,-999.0,92,-99.99,,,-99.99,,2013-07-15 05:12:00,
2013-07-15 01:22:00,72.0,70.0,30.15,NE,43,0.0,-999.0,93,-99.99,,,-99.99,,2013-07-15 05:22:00,
2013-07-15 01:32:00,72.0,70.0,30.14,NE,43,0.0,-999.0,93,-99.99,,,-99.99,,2013-07-15 05:32:00,
2013-07-15 01:43:00,72.0,70.0,30.14,NE,43,0.0,-999.0,93,-99.99,,,-99.99,,2013-07-15 05:43:00,
2013-07-15 01:53:00,72.0,70.0,30.15,NE,43,0.0,-999.0,93,-99.99,,,-99.99,,2013-07-15 05:53:00,
2013-07-15 02:02:00,72.0,70.0,30.14,NE,43,0.0,-999.0,93,-99.99,,,-99.99,,2013-07-15 06:02:00,
2013-07-15 02:12:00,72.0,70.0,30.14,NE,43,0.0,-999.0,93,-99.99,,,-99.99,,2013-07-15 06:12:00,
2013-07-15 02:22:00,72.0,70.0,30.14,NE,43,0.0,-999.0,93,-99.99,,,-99.99,,2013-07-15 06:22:00,
2013-07-15 02:32:00,72.0,70.0,30.14,NE,43,0.0,-999.0,94,-99.99,,,-99.99,,2013-07-15 06:32:00,
2013-07-15 02:42:00,72.0,70.0,30.14,NE,43,0.0,-999.0,94,-99.99,,,-99.99,,2013-07-15 06:42:00,
2013-07-15 02:53:00,72.0,70.0,30.14,NE,43,0.0,-999.0,93,-99.99,,,-99.99,,2013-07-15 06:53:00,
2013-07-15 03:01:00,71.0,69.0,30.14,NE,43,0.0,-999.0,94,-99.99,,,-99.99,,2013-07-15 07:01:00,
2013-07-15 03:11:00,71.0,69.0,30.14,NE,43,0.0,-999.0,94,-99.99,,,-99.99,,2013-07-15 07:11:00,
2013-07-15 03:22:00,71.0,69.0,30.14,NE,43,0.0,-999.0,94,-99.99,,,-99.99,,2013-07-15 07:22:00,
2013-07-15 03:33:00,71.0,69.0,30.14,NE,43,0.0,-999.0,94,-99.99,,,-99.99,,2013-07-15 07:33:00,
2013-07-15 03:44:00,71.0,69.0,30.14,NE,43,0.0,-999.0,94,-99.99,,,-99.99,,2013-07-15 07:44:00,
2013-07-15 03:53:00,71.0,69.0,30.14,NE,43,0.0,-999.0,94,-99.99,,,-99.99,,2013-07-15 07:53:00,
2013-07-15 04:02:00,71.0,69.0,30.14,NE,43,0.0,-999.0,94,-99.99,,,-99.99,,2013-07-15 08:02:00,
2013-07-15 04:12:00,71.0,69.0,30.14,NE,43,0.0,-999.0,94,-99.99,,,-99.99,,2013-07-15 08:12:00,
2013-07-15 04:22:00,71.0,69.0,30.14,NE,43,0.0,-999.0,94,-99.99,,,-99.99,,2013-07-15 08:22:00,
2013-07-15 04:32:00,70.0,68.0,30.14,NE,43,0.0,-999.0,94,-99.99,,,-99.99,,2013-07-15 08:32:00,
2013-07-15 04:43:00,70.0,68.0,30.14,NE,43,0.0,-999.0,94,-99.99,,,-99.99,,2013-07-15 08:43:00,
2013-07-15 04:53:00,70.0,68.0,30.14,NE,43,0.0,-999.0,94,-99.99,,,-99.99,,2013-07-15 08:53:00,
2013-07-15 05:02:00,70.0,68.0,30.14,NE,43,0.0,-999.0,94,-99.99,,,-99.99,,2013-07-15 09:02:00,
2013-07-15 05:12:00,70.0,68.0,30.14,NE,43,0.0,-999.0,94,-99.99,,,-99.99,,2013-07-15 09:12:00,
2013-07-15 05:22:00,70.0,68.0,30.14,NE,43,0.0,-999.0,94,-99.99,,,-99.99,,2013-07-15 09:22:00,
2013-07-15 05:32:00,70.0,68.0,30.14,NE,43,0.0,-999.0,94,-99.99,,,-99.99,,2013-07-15 09:32:00,
2013-07-15 05:43:00,70.0,68.0,30.14,NE,43,0.0,-999.0,94,-99.99,,,-99.99,,2013-07-15 09:43:00,
2013-07-15 05:52:00,70.0,68.0,30.14,NE,43,0.0,-999.0,94,-99.99,,,-99.99,,2013-07-15 09:52:00,
2013-07-15 06:02:00,70.0,68.0,30.14,NE,43,0.0,-999.0,94,-99.99,,,-99.99,,2013-07-15 10:02:00,
2013-07-15 06:11:00,70.0,68.0,30.14,NE,43,0.0,-999.0,94,-99.99,,,-99.99,,2013-07-15 10:11:00,
2013-07-15 06:22:00,70.0,68.0,30.14,NE,43,0.0,-999.0,95,-99.99,,,-99.99,,2013-07-15 10:22:00,
2013-07-15 06:32:00,70.0,68.0,30.14,NE,43,0.0,-999.0,95,-99.99,,,-99.99,,2013-07-15 10:32:00,
2013-07-15 06:43:00,70.0,68.0,30.14,NE,43,0.0,-999.0,95,-99.99,,,-99.99,,2013-07-15 10:43:00,
2013-07-15 06:53:00,71.0,69.0,30.14,NE,36,0.0,-999.0,95,-99.99,,,-99.99,,2013-07-15 10:53:00,
2013-07-15 07:02:00,71.0,69.0,30.14,NW,323,0.0,-999.0,95,-99.99,,,-99.99,,2013-07-15 11:02:00,
2013-07-15 07:11:00,71.0,69.0,30.14,NW,323,0.0,-999.0,95,-99.99,,,-99.99,,2013-07-15 11:11:00,
2013-07-15 07:22:00,72.0,70.0,30.15,NW,323,0.0,-999.0,95,-99.99,,,-99.99,,2013-07-15 11:22:00,
2013-07-15 07:32:00,73.0,71.0,30.15,NW,323,0.0,-999.0,95,-99.99,,,-99.99,,2013-07-15 11:32:00,
2013-07-15 07:42:00,74.0,72.0,30.15,NW,323,0.0,-999.0,93,-99.99,,,-99.99,,2013-07-15 11:42:00,
2013-07-15 07:52:00,74.0,72.0,30.15,NW,323,0.0,-999.0,93,-99.99,,,-99.99,,2013-07-15 11:52:00,
2013-07-15 08:01:00,76.0,72.0,30.16,NW,311,0.0,-999.0,87,-99.99,,,-99.99,,2013-07-15 12:01:00,
2013-07-15 08:11:00,76.0,72.0,30.16,NW,311,0.0,-999.0,87,-99.99,,,-99.99,,2013-07-15 12:11:00,
2013-07-15 08:22:00,78.0,72.0,30.15,NW,304,0.0,-999.0,82,-99.99,,,-99.99,,2013-07-15 12:22:00,
2013-07-15 08:32:00,80.0,72.0,30.15,NNE,20,0.0,-999.0,77,-99.99,,,-99.99,,2013-07-15 12:32:00,
2013-07-15 08:42:00,80.0,72.0,30.15,NNE,20,0.0,-999.0,77,-99.99,,,-99.99,,2013-07-15 12:42:00,
2013-07-15 08:53:00,81.0,72.0,30.15,NE,37,1.0,-999.0,73,-99.99,,,-99.99,,2013-07-15 12:53:00,
2013-07-15 09:02:00,82.0,72.0,30.15,NE,38,1.0,-999.0,72,-99.99,,,-99.99,,2013-07-15 13:02:00,
2013-07-15 09:11:00,82.0,72.0,30.15,NE,38,1.0,-999.0,72,-99.99,,,-99.99,,2013-07-15 13:11:00,
2013-07-15 09:22:00,83.0,72.0,30.15,NNW,329,1.0,-999.0,70,-99.99,,,-99.99,,2013-07-15 13:22:00,
2013-07-15 09:33:00,83.0,72.0,30.15,NNW,329,1.0,-999.0,70,-99.99,,,-99.99,,2013-07-15 13:33:00,
2013-07-15 09:43:00,84.0,72.0,30.14,NW,317,1.0,-999.0,68,-99.99,,,-99.99,,2013-07-15 13:43:00,
2013-07-15 09:53:00,84.0,72.0,30.14,NNW,336,1.0,-999.0,67,-99.99,,,-99.99,,2013-07-15 13:53:00,
2013-07-15 10:02:00,84.0,72.0,30.14,NNW,336,1.0,-999.0,67,-99.99,,,-99.99,,2013-07-15 14:02:00,
2013-07-15 10:11:00,84.0,71.0,30.14,West,276,2.0,-999.0,66,-99.99,,,-99.99,,2013-07-15 14:11:00,
2013-07-15 10:22:00,85.0,72.0,30.14,NNE,32,1.0,-999.0,65,-99.99,,,-99.99,,2013-07-15 14:22:00,
2013-07-15 10:33:00,86.0,72.0,30.14,WNW,288,1.0,-999.0,64,-99.99,,,-99.99,,2013-07-15 14:33:00,
2013-07-15 10:42:00,86.0,72.0,30.14,WNW,288,1.0,-999.0,64,-99.99,,,-99.99,,2013-07-15 14:42:00,
2013-07-15 11:02:00,87.0,72.0,30.14,WNW,296,0.0,-999.0,62,-99.99,,,-99.99,,2013-07-15 15:02:00,
2013-07-15 11:47:00,89.0,73.0,30.13,North,360,1.0,-999.0,59,-99.99,,,-99.99,,2013-07-15 15:47:00,
2013-07-15 11:53:00,90.0,73.0,30.13,WNW,301,1.0,-999.0,57,-99.99,,,-99.99,,2013-07-15 15:53:00,
2013-07-15 12:08:00,91.0,74.0,30.12,WNW,296,0.0,-999.0,57,-99.99,,,-99.99,,2013-07-15 16:08:00,
2013-07-15 12:15:00,91.0,74.0,30.12,WNW,296,0.0,-999.0,57,-99.99,,,-99.99,,2013-07-15 16:15:00,
2013-07-15 12:24:00,91.0,74.0,30.12,NW,304,1.0,-999.0,57,-99.99,,,-99.99,,2013-07-15 16:24:00,
2013-07-15 12:33:00,91.0,74.0,30.12,NW,304,1.0,-999.0,57,-99.99,,,-99.99,,2013-07-15 16:33:00,
2013-07-15 12:53:00,90.0,72.0,30.11,North,9,2.0,-999.0,56,-99.99,,,-99.99,,2013-07-15 16:53:00,
2013-07-15 13:08:00,90.0,72.0,30.11,North,9,2.0,-999.0,56,-99.99,,,-99.99,,2013-07-15 17:08:00,
2013-07-15 13:13:00,91.0,72.0,30.11,NNW,336,1.0,-999.0,54,-99.99,,,-99.99,,2013-07-15 17:13:00,
2013-07-15 13:36:00,92.0,73.0,30.11,NW,306,1.0,-999.0,54,-99.99,,,-99.99,,2013-07-15 17:36:00,
2013-07-15 14:00:00,92.0,73.0,30.10,NNE,29,1.0,-999.0,54,-99.99,,,-99.99,,2013-07-15 18:00:00,
2013-07-15 14:18:00,92.0,72.0,30.10,WNW,294,2.0,-999.0,52,-99.99,,,-99.99,,2013-07-15 18:18:00,
2013-07-15 14:28:00,92.0,72.0,30.10,NNE,32,2.0,-999.0,53,-99.99,,,-99.99,,2013-07-15 18:28:00,
2013-07-15 14:38:00,92.0,72.0,30.09,NNW,336,2.0,-999.0,52,-99.99,,,-99.99,,2013-07-15 18:38:00,
2013-07-15 14:45:00,92.0,72.0,30.09,NNW,336,2.0,-999.0,52,-99.99,,,-99.99,,2013-07-15 18:45:00,
2013-07-15 14:59:00,93.0,73.0,30.09,NW,320,1.0,-999.0,52,-99.99,,,-99.99,,2013-07-15 18:59:00,
2013-07-15 15:05:00,92.0,72.0,30.09,WNW,284,3.0,-999.0,53,-99.99,,,-99.99,,2013-07-15 19:05:00,
2013-07-15 15:12:00,92.0,72.0,30.09,WNW,284,3.0,-999.0,53,-99.99,,,-99.99,,2013-07-15 19:12:00,
2013-07-15 15:24:00,92.0,72.0,30.08,WNW,301,1.0,-999.0,52,-99.99,,,-99.99,,2013-07-15 19:24:00,
2013-07-15 15:47:00,92.0,71.0,30.08,WNW,298,1.0,-999.0,51,-99.99,,,-99.99,,2013-07-15 19:47:00,
2013-07-15 15:57:00,91.0,71.0,30.08,WNW,293,1.0,-999.0,53,-99.99,,,-99.99,,2013-07-15 19:57:00,
2013-07-15 16:07:00,91.0,72.0,30.08,NW,305,1.0,-999.0,54,-99.99,,,-99.99,,2013-07-15 20:07:00,
2013-07-15 16:18:00,91.0,72.0,30.08,NW,305,1.0,-999.0,54,-99.99,,,-99.99,,2013-07-15 20:18:00,
2013-07-15 16:29:00,91.0,73.0,30.07,NW,311,0.0,-999.0,55,-99.99,,,-99.99,,2013-07-15 20:29:00,
2013-07-15 16:37:00,91.0,73.0,30.07,NW,311,0.0,-999.0,55,-99.99,,,-99.99,,2013-07-15 20:37:00,
2013-07-15 16:43:00,91.0,71.0,30.07,North,355,0.0,-999.0,53,-99.99,,,-99.99,,2013-07-15 20:43:00,
2013-07-15 16:59:00,91.0,71.0,30.07,North,349,0.0,-999.0,52,-99.99,,,-99.99,,2013-07-15 20:59:00,
2013-07-15 17:12:00,91.0,71.0,30.07,NNW,334,0.0,-999.0,53,-99.99,,,-99.99,,2013-07-15 21:12:00,
2013-07-15 17:23:00,91.0,73.0,30.06,NNW,329,0.0,-999.0,55,-99.99,,,-99.99,,2013-07-15 21:23:00,
2013-07-15 17:39:00,91.0,71.0,30.06,NNW,329,0.0,-999.0,53,-99.99,,,-99.99,,2013-07-15 21:39:00,
2013-07-15 17:48:00,91.0,71.0,30.06,NNW,329,0.0,-999.0,53,-99.99,,,-99.99,,2013-07-15 21:48:00,
2013-07-15 18:02:00,92.0,72.0,30.05,NW,306,0.0,-999.0,53,-99.99,,,-99.99,,2013-07-15 22:02:00,
2013-07-15 18:18:00,91.0,74.0,30.05,NW,305,0.0,-999.0,57,-99.99,,,-99.99,,2013-07-15 22:18:00,
2013-07-15 18:34:00,92.0,75.0,30.04,NW,305,0.0,-999.0,57,-99.99,,,-99.99,,2013-07-15 22:34:00,
2013-07-15 18:43:00,92.0,75.0,30.04,NW,305,0.0,-999.0,57,-99.99,,,-99.99,,2013-07-15 22:43:00,
2013-07-15 18:54:00,92.0,74.0,30.05,NW,306,0.0,-999.0,56,-99.99,,,-99.99,,2013-07-15 22:54:00,
2013-07-15 19:06:00,92.0,74.0,30.04,NW,308,0.0,-999.0,56,-99.99,,,-99.99,,2013-07-15 23:06:00,
2013-07-15 19:13:00,92.0,74.0,30.04,NW,308,0.0,-999.0,56,-99.99,,,-99.99,,2013-07-15 23:13:00,
2013-07-15 19:30:00,91.0,75.0,30.04,NW,308,0.0,-999.0,60,-99.99,,,-99.99,,2013-07-15 23:30:00,
2013-07-15 19:39:00,89.0,76.0,30.05,NW,308,0.0,-999.0,66,-99.99,,,-99.99,,2013-07-15 23:39:00,
2013-07-15 19:48:00,89.0,76.0,30.05,NW,308,0.0,-999.0,66,-99.99,,,-99.99,,2013-07-15 23:48:00,
2013-07-15 19:54:00,88.0,75.0,30.05,NW,308,0.0,-999.0,66,-99.99,,,-99.99,,2013-07-15 23:54:00,
2013-07-15 20:03:00,87.0,75.0,30.05,NW,308,0.0,-999.0,67,-99.99,,,-99.99,,2013-07-16 00:03:00,
2013-07-15 20:16:00,87.0,75.0,30.05,NW,308,0.0,-999.0,67,-99.99,,,-99.99,,2013-07-16 00:16:00,
2013-07-15 20:27:00,85.0,73.0,30.05,NW,308,0.0,-999.0,68,-99.99,,,-99.99,,2013-07-16 00:27:00,
2013-07-15 20:34:00,84.0,74.0,30.05,NW,308,0.0,-999.0,72,-99.99,,,-99.99,,2013-07-16 00:34:00,
2013-07-15 20:48:00,84.0,74.0,30.05,NW,308,0.0,-999.0,72,-99.99,,,-99.99,,2013-07-16 00:48:00,
2013-07-15 21:10:00,81.0,73.0,30.06,NW,308,0.0,-999.0,78,-99.99,,,-99.99,,2013-07-16 01:10:00,
2013-07-15 21:17:00,81.0,73.0,30.06,NW,308,0.0,-999.0,78,-99.99,,,-99.99,,2013-07-16 01:17:00,
2013-07-15 21:28:00,79.0,72.0,30.06,NW,308,0.0,-999.0,80,-99.99,,,-99.99,,2013-07-16 01:28:00,
2013-07-15 21:37:00,79.0,72.0,30.06,NW,308,0.0,-999.0,80,-99.99,,,-99.99,,2013-07-16 01:37:00,
2013-07-15 21:49:00,78.0,72.0,30.07,NW,308,0.0,-999.0,81,-99.99,,,-99.99,,2013-07-16 01:49:00,
2013-07-15 22:02:00,78.0,72.0,30.07,NW,308,0.0,-999.0,82,-99.99,,,-99.99,,2013-07-16 02:02:00,
2013-07-15 22:11:00,77.0,71.0,30.08,NW,308,0.0,-999.0,83,-99.99,,,-99.99,,2013-07-16 02:11:00,
2013-07-15 22:29:00,76.0,71.0,30.08,NW,308,0.0,-999.0,84,-99.99,,,-99.99,,2013-07-16 02:29:00,
2013-07-15 22:35:00,76.0,72.0,30.08,NW,308,0.0,-999.0,86,-99.99,,,-99.99,,2013-07-16 02:35:00,
2013-07-15 22:50:00,76.0,72.0,30.08,NW,308,0.0,-999.0,86,-99.99,,,-99.99,,2013-07-16 02:50:00,
2013-07-15 22:55:00,75.0,71.0,30.08,NW,308,0.0,-999.0,87,-99.99,,,-99.99,,2013-07-16 02:55:00,
2013-07-15 23:09:00,75.0,71.0,30.08,NW,308,0.0,-999.0,87,-99.99,,,-99.99,,2013-07-16 03:09:00,
2013-07-15 23:17:00,75.0,71.0,30.07,NW,308,0.0,-999.0,88,-99.99,,,-99.99,,2013-07-16 03:17:00,
2013-07-15 23:29:00,74.0,71.0,30.08,NW,308,0.0,-999.0,89,-99.99,,,-99.99,,2013-07-16 03:29:00,
2013-07-15 23:47:00,74.0,71.0,30.08,NW,308,0.0,-999.0,89,-99.99,,,-99.99,,2013-07-16 03:47:00,
2013-07-15 23:58:00,73.0,70.0,30.08,NW,308,0.0,-999.0,90,-99.99,,,-99.99,,2013-07-16 03:58:00,